Location: Piotrkow Trybunalski
(51.4000°N, 19.6830°E)
Time: 22:02:14
(UTC+01:00)

ISS - Pass Details

Date: 01 February 2020
Orbit: 415 x 423 km, 51.6° (Epoch: 25 February)

Event Time Altitude Azimuth Distance (km) Brightness Sun altitude
Rises 18:29:25 0° 282° (WNW) 2,382 1.5 -18.6°
Reaches altitude 10° 18:31:32 10° 280° (W) 1,514 0.2 -19.0°
Maximum altitude 18:34:54 67° 198° (SSW) 461 -3.6 -19.5°
Enters shadow 18:35:14 62° 158° (SSE) 482 -3.7 -19.5°
